Location: D?uga
(50.2667°N, 19.7833°E)
Time: 21:51:00
(UTC+00:00)

SL-16 R/B - Pass Details

Date: 23 May 2024
Orbit: 985 x 1007 km, 99.7° (Epoch: 22 June)

Event Time Altitude Azimuth Distance (km) Brightness Sun altitude
Rises 01:47:41 0° 181° (S) 3,720 5.1 -7.6°
Reaches altitude 10° 01:50:15 10° 187° (S) 2,776 4.4 -7.3°
Maximum altitude 01:56:16 48° 260° (W) 1,298 2.9 -6.7°
Drops below altitude 10° 02:02:19 10° 334° (NNW) 2,794 5.1 -6.0°
Sets 02:04:56 0° 341° (NNW) 3,747 5.9 -5.7°
